Torna al catalogo

FREGAT DEB

LostUNKNOWN
NORAD 46523·DEBRIS·🇷🇺 Russia

Lanciato Jul 18, 2011 da Baikonur Cosmodrome

Loading…

Prossimi Passaggi (prossime 24 ore)

TLE

ObsoletoSource: Space-Track

Epoca: Apr 2, 2021, 17:13 UTC

1 46523U 11037MB  21092.71756116 -.00004255  00000-0 -22575-1 0  9990
2 46523  51.1639 211.6927 2028080 131.9380 247.3026  9.94777040 22072

Traccia FREGAT DEB in tempo reale con AllMySat

Download on the App Store